SL-12 R/B(2)

基本信息
目录编号:
27404
目录名称:
SL-12 R/B(2)
国际标识:
2002-016B
轨道中心:
EARTH
物体状态:
在轨
发射日期:
2002-03-30 UTC
国别:
俄罗斯(独联体) (CIS)
轨道信息
数据来源: 国际轨道数据
星历时间: 2026-07-13T23:08:02+0800
半长轴: 26066.521km
偏心率: 0.6224507
轨道倾角: 25.599°
近地点辐角: 167.233°
升交点赤经: 322.870°
平近点角: 222.039°
近地点: 3463.259km
远地点: 35913.509km
周期: 698.046分钟
每日圈数: 2.0629
详细信息
发射场:
TTMTR
轨道高度:
MEO
数据来源:
AOE Integration Group
参考系:
TEME
时间系统:
UTC
历元类型:
SGP4
2D轨道图
3D轨道图
轨道高度分析图
轨道倾角分析图
轨道综合分析图
查看轨道综合分析图